Вернуться в каталог

FENGYUN 1C DEB

АктивенPO
NORAD 30322·DEBRIS·🇨🇳 China

Запущен May 10, 1999 с Taiyuan Satellite Launch Center

Loading…

Ближайшие Пролёты (ближайшие 24 часа)

TLE

СвежийSource: Space-Track

Эпоха: Sep 13, 2026, 23:38 UTC

1 30322U 99025AAK 26256.98495389  .00001325  00000-0  76186-3 0  9993
2 30322  98.3762  99.8281 0124404 189.3380 170.5477 14.07002027   667

Отслеживайте FENGYUN 1C DEB в реальном времени с AllMySat

Download on the App Store